SAS104 UBBB-LBSF

Flight info

Callsign SAS104
Flight time 2h 48m
Altitude 34000
Route RASAM DCT LUSAL DCT INTEV DCT BARAD DCT IDLER/K0889F380 DCT DEMED DCT NESAR DCT GAPVO
Aircraft B77W/H-SDE1E2E3FGHIJ2J3J4J5M1RWXY/LB1D1

Departure

Time 2026-05-07 11:15
Airport Heydar Aliyev International Airport (UBBB)

Arrival

Time 2026-05-07 14:03
Airport Sofia Airport (LBSF)
Time Latitude Longitude Altitude Speed Heading
2026-05-07 10:52 40.46736 50.05160 3 ft 0 kts 169°
2026-05-07 11:05 40.46737 50.05160 2 ft 0 kts 169°
2026-05-07 11:06 40.46756 50.05155 2 ft 3 kts 169°
2026-05-07 11:06 40.46777 50.05150 3 ft 3 kts 169°
2026-05-07 11:06 40.46798 50.05145 4 ft 3 kts 169°
2026-05-07 11:06 40.46818 50.05138 4 ft 3 kts 145°
2026-05-07 11:07 40.46832 50.05117 5 ft 3 kts 109°
2026-05-07 11:07 40.46835 50.05100 18 ft 0 kts 86°
2026-05-07 11:09 40.46835 50.05102 3 ft 0 kts 86°
2026-05-07 11:09 40.46849 50.05137 3 ft 6 kts 30°
2026-05-07 11:09 40.46892 50.05143 3 ft 6 kts
2026-05-07 11:09 40.46925 50.05177 3 ft 7 kts 63°
2026-05-07 11:10 40.46929 50.05237 2 ft 7 kts 90°
2026-05-07 11:10 40.46930 50.05329 2 ft 19 kts 88°
2026-05-07 11:10 40.46938 50.05569 2 ft 28 kts 88°
2026-05-07 11:10 40.46944 50.05823 1 ft 28 kts 88°
2026-05-07 11:11 40.46940 50.06047 1 ft 20 kts 115°
2026-05-07 11:11 40.46808 50.06090 0 ft 20 kts 178°
2026-05-07 11:11 40.46666 50.06093 -1 ft 20 kts 181°
2026-05-07 11:11 40.46500 50.06093 -3 ft 25 kts 179°
2026-05-07 11:12 40.46326 50.06098 -4 ft 25 kts 179°
2026-05-07 11:12 40.46151 50.06098 -6 ft 25 kts 179°
2026-05-07 11:12 40.45977 50.06103 -7 ft 25 kts 178°
2026-05-07 11:12 40.45802 50.06103 -9 ft 25 kts 180°
2026-05-07 11:13 40.45717 50.06105 -9 ft 0 kts 173°
2026-05-07 11:13 40.45714 50.06105 -9 ft 1 kts 173°
2026-05-07 11:13 40.45678 50.06123 -10 ft 15 kts 146°
2026-05-07 11:14 40.45660 50.06271 -12 ft 18 kts 69°
2026-05-07 11:14 40.45770 50.06320 -11 ft 18 kts 359°
2026-05-07 11:14 40.45947 50.06316 -10 ft 39 kts 359°
2026-05-07 11:14 40.46424 50.06307 -3 ft 105 kts 359°
2026-05-07 11:15 40.47387 50.06292 3 ft 170 kts 359°
2026-05-07 11:15 40.48724 50.06256 155 ft 206 kts 359°
2026-05-07 11:15 40.50141 50.05948 743 ft 204 kts 343°
2026-05-07 11:15 40.51499 50.05446 1409 ft 203 kts 350°
2026-05-07 11:16 40.52894 50.05113 1935 ft 206 kts 352°
2026-05-07 11:16 40.54315 50.04811 2495 ft 207 kts 352°
2026-05-07 11:16 40.55737 50.04510 3090 ft 206 kts 352°
2026-05-07 11:16 40.57191 50.04205 3442 ft 222 kts 352°
2026-05-07 11:17 40.58781 50.03844 3694 ft 240 kts 347°
2026-05-07 11:17 40.60287 50.02784 4065 ft 255 kts 315°
2026-05-07 11:17 40.61311 50.00845 4619 ft 263 kts 292°
2026-05-07 11:17 40.61624 49.98502 5301 ft 259 kts 269°
2026-05-07 11:18 40.61627 49.96098 5920 ft 266 kts 270°
2026-05-07 11:18 40.61644 49.93695 6683 ft 266 kts 270°
2026-05-07 11:18 40.61665 49.91231 7409 ft 267 kts 269°
2026-05-07 11:18 40.61688 49.88771 8093 ft 270 kts 269°
2026-05-07 11:19 40.61715 49.86324 8769 ft 273 kts 269°
2026-05-07 11:19 40.61746 49.83814 9464 ft 275 kts 269°
2026-05-07 11:19 40.61777 49.81285 10146 ft 277 kts 269°
2026-05-07 11:19 40.61808 49.78688 10479 ft 294 kts 269°
2026-05-07 11:20 40.61835 49.75891 10650 ft 316 kts 268°
2026-05-07 11:20 40.61821 49.72889 10822 ft 339 kts 268°
2026-05-07 11:20 40.61789 49.69699 11130 ft 356 kts 267°
2026-05-07 11:20 40.61754 49.66394 11766 ft 365 kts 267°
2026-05-07 11:21 40.61720 49.63033 12586 ft 369 kts 267°
2026-05-07 11:21 40.61687 49.59645 13547 ft 371 kts 267°
2026-05-07 11:21 40.61655 49.56231 14415 ft 375 kts 267°
2026-05-07 11:21 40.61621 49.52786 15219 ft 378 kts 267°
2026-05-07 11:22 40.61586 49.49314 16032 ft 382 kts 267°
2026-05-07 11:22 40.61550 49.45794 16773 ft 387 kts 266°
2026-05-07 11:22 40.61512 49.42233 17528 ft 391 kts 266°
2026-05-07 11:22 40.61474 49.38646 18355 ft 394 kts 266°
2026-05-07 11:23 40.61434 49.35029 19046 ft 397 kts 266°
2026-05-07 11:23 40.61393 49.31379 19753 ft 400 kts 266°
2026-05-07 11:23 40.61351 49.27712 20476 ft 402 kts 266°
2026-05-07 11:23 40.61307 49.24028 21147 ft 405 kts 266°
2026-05-07 11:24 40.61261 49.20305 21796 ft 408 kts 266°
2026-05-07 11:24 40.61206 49.16553 22492 ft 411 kts 266°
2026-05-07 11:24 40.61137 49.12781 23152 ft 414 kts 266°
2026-05-07 11:24 40.61061 49.08979 23767 ft 417 kts 266°
2026-05-07 11:25 40.60982 49.05154 24308 ft 419 kts 265°
2026-05-07 11:25 40.60904 49.01323 24901 ft 420 kts 265°
2026-05-07 11:25 40.60825 48.97479 25495 ft 421 kts 265°
2026-05-07 11:25 40.60745 48.93616 25983 ft 424 kts 265°
2026-05-07 11:26 40.60692 48.91042 26308 ft 425 kts 265°
2026-05-07 11:26 40.60584 48.85842 27104 ft 425 kts 265°
2026-05-07 11:26 40.60500 48.81947 27658 ft 426 kts 265°
2026-05-07 11:26 40.60414 48.78036 28135 ft 428 kts 265°
2026-05-07 11:27 40.60328 48.74153 28569 ft 431 kts 265°
2026-05-07 11:27 40.60239 48.70210 29015 ft 432 kts 265°
2026-05-07 11:27 40.60179 48.67534 29305 ft 433 kts 265°
2026-05-07 11:27 40.60088 48.63562 29705 ft 435 kts 265°
2026-05-07 11:28 40.59997 48.59582 30077 ft 437 kts 264°
2026-05-07 11:28 40.59901 48.55572 30378 ft 438 kts 264°
2026-05-07 11:28 40.59804 48.51557 30601 ft 441 kts 264°
2026-05-07 11:28 40.59704 48.47513 30839 ft 442 kts 264°
2026-05-07 11:29 40.59604 48.43470 31131 ft 443 kts 265°
2026-05-07 11:29 40.59503 48.39410 31357 ft 445 kts 264°
2026-05-07 11:29 40.59402 48.35343 31708 ft 443 kts 264°
2026-05-07 11:29 40.59298 48.31301 32117 ft 441 kts 264°
2026-05-07 11:30 40.59193 48.27275 32469 ft 439 kts 264°
2026-05-07 11:30 40.59087 48.23265 32791 ft 439 kts 264°
2026-05-07 11:30 40.58979 48.19255 33098 ft 438 kts 264°
2026-05-07 11:30 40.58871 48.15253 33402 ft 437 kts 264°
2026-05-07 11:31 40.58762 48.11264 33699 ft 436 kts 264°
2026-05-07 11:31 40.58651 48.07278 33998 ft 436 kts 264°
2026-05-07 11:31 40.58585 47.99254 34106 ft 442 kts 270°
2026-05-07 11:32 40.60410 47.87339 34091 ft 447 kts 283°
2026-05-07 11:33 40.62578 47.79742 34095 ft 446 kts 285°
2026-05-07 11:33 40.64815 47.72067 34099 ft 446 kts 285°
2026-05-07 11:34 40.66996 47.64454 34101 ft 449 kts 284°
2026-05-07 11:34 40.69194 47.56679 34123 ft 456 kts 284°
2026-05-07 11:35 40.71102 47.49908 34104 ft 461 kts 284°
2026-05-07 11:35 40.73345 47.41935 34107 ft 466 kts 284°
2026-05-07 11:36 40.75599 47.33903 34134 ft 468 kts 285°
2026-05-07 11:36 40.77859 47.25819 34113 ft 470 kts 284°
2026-05-07 11:37 40.80118 47.17719 34106 ft 471 kts 284°
2026-05-07 11:37 40.82371 47.09605 34107 ft 470 kts 284°
2026-05-07 11:38 40.84608 47.01513 34131 ft 468 kts 284°
2026-05-07 11:38 40.86834 46.93433 34117 ft 468 kts 284°
2026-05-07 11:39 40.89052 46.85356 34114 ft 467 kts 284°
2026-05-07 11:39 40.91263 46.77278 34114 ft 467 kts 284°
2026-05-07 11:40 40.93467 46.69199 34126 ft 467 kts 284°
2026-05-07 11:40 40.95666 46.61111 34122 ft 468 kts 284°
2026-05-07 11:41 40.97850 46.53055 34113 ft 468 kts 284°
2026-05-07 11:41 41.00048 46.44923 34111 ft 469 kts 284°
2026-05-07 11:42 41.02243 46.36773 34123 ft 471 kts 284°
2026-05-07 11:42 41.04440 46.28589 34116 ft 472 kts 284°
2026-05-07 11:43 41.06638 46.20374 34116 ft 473 kts 284°
2026-05-07 11:43 41.08832 46.12149 34128 ft 473 kts 284°
2026-05-07 11:44 41.11022 46.03912 34118 ft 474 kts 284°
2026-05-07 11:44 41.13210 45.95652 34116 ft 474 kts 284°
2026-05-07 11:45 41.15390 45.87395 34107 ft 474 kts 284°
2026-05-07 11:45 41.17563 45.79136 34124 ft 474 kts 284°
2026-05-07 11:46 41.19734 45.70858 34120 ft 475 kts 284°
2026-05-07 11:46 41.21897 45.62580 34122 ft 475 kts 284°
2026-05-07 11:47 41.24056 45.54291 34119 ft 475 kts 284°
2026-05-07 11:47 41.26210 45.45994 34115 ft 475 kts 284°
2026-05-07 11:48 41.28361 45.37677 34122 ft 476 kts 284°
2026-05-07 11:48 41.30507 45.29352 34117 ft 476 kts 284°
2026-05-07 11:49 41.32647 45.21020 34118 ft 476 kts 284°
2026-05-07 11:49 41.34785 45.12671 34128 ft 477 kts 284°
2026-05-07 11:50 41.36905 45.04361 34121 ft 478 kts 284°
2026-05-07 11:50 41.39036 44.95970 34125 ft 479 kts 284°
2026-05-07 11:51 41.41165 44.87559 34132 ft 479 kts 284°
2026-05-07 11:51 41.43292 44.79119 34136 ft 482 kts 284°
2026-05-07 11:52 41.45426 44.70626 34137 ft 485 kts 284°
2026-05-07 11:52 41.47565 44.62084 34143 ft 486 kts 284°
2026-05-07 11:53 41.49703 44.53513 34135 ft 488 kts 284°
2026-05-07 11:53 41.51842 44.44913 34142 ft 488 kts 284°
2026-05-07 11:54 41.53971 44.36316 34149 ft 488 kts 284°
2026-05-07 11:54 41.56098 44.27697 34132 ft 488 kts 284°
2026-05-07 11:55 41.58216 44.19084 34150 ft 488 kts 285°
2026-05-07 11:55 41.60328 44.10461 34156 ft 488 kts 285°
2026-05-07 11:56 41.62434 44.01828 34150 ft 489 kts 284°
2026-05-07 11:56 41.64532 43.93197 34162 ft 488 kts 284°
2026-05-07 11:57 41.66628 43.84544 34158 ft 489 kts 285°
2026-05-07 11:57 41.68718 43.75884 34161 ft 490 kts 285°
2026-05-07 11:58 41.70803 43.67212 34167 ft 490 kts 285°
2026-05-07 11:58 41.72884 43.58523 34174 ft 491 kts 285°
2026-05-07 11:59 41.74965 43.49801 34170 ft 492 kts 285°
2026-05-07 11:59 41.77040 43.41065 34159 ft 493 kts 285°
2026-05-07 12:00 41.79116 43.32300 34169 ft 494 kts 285°
2026-05-07 12:00 41.81187 43.23518 34167 ft 495 kts 285°
2026-05-07 12:01 41.83260 43.14692 34165 ft 497 kts 285°
2026-05-07 12:01 41.85319 43.05897 34166 ft 497 kts 285°
2026-05-07 12:02 41.87386 42.97026 34162 ft 499 kts 285°
2026-05-07 12:02 41.89453 42.88127 34171 ft 500 kts 285°
2026-05-07 12:03 41.91517 42.79205 34169 ft 501 kts 285°
2026-05-07 12:03 41.93578 42.70250 34153 ft 502 kts 285°
2026-05-07 12:04 41.95638 42.61272 34155 ft 503 kts 286°
2026-05-07 12:04 41.97693 42.52275 34158 ft 504 kts 286°
2026-05-07 12:05 41.99747 42.43251 34159 ft 505 kts 286°
2026-05-07 12:05 42.01799 42.34195 34159 ft 506 kts 286°
2026-05-07 12:06 42.03846 42.25127 34155 ft 507 kts 286°
2026-05-07 12:06 42.05887 42.16042 34161 ft 508 kts 286°
2026-05-07 12:07 42.07926 42.06935 34165 ft 508 kts 286°
2026-05-07 12:07 42.09956 41.97827 34166 ft 508 kts 286°
2026-05-07 12:08 42.11979 41.88708 34167 ft 509 kts 286°
2026-05-07 12:08 42.13998 41.79575 34172 ft 509 kts 286°
2026-05-07 12:09 42.16013 41.70420 34179 ft 510 kts 286°
2026-05-07 12:09 42.18023 41.61249 34183 ft 510 kts 286°
2026-05-07 12:10 42.20027 41.52064 34178 ft 511 kts 286°
2026-05-07 12:10 42.21689 41.44416 34187 ft 511 kts 286°
2026-05-07 12:11 42.24010 41.33691 34189 ft 512 kts 286°
2026-05-07 12:11 42.25997 41.24466 34188 ft 512 kts 286°
2026-05-07 12:12 42.27656 41.16732 34190 ft 512 kts 286°
2026-05-07 12:12 42.29630 41.07499 34194 ft 512 kts 286°
2026-05-07 12:13 42.31582 40.98321 34193 ft 511 kts 286°
2026-05-07 12:13 42.33538 40.89085 34196 ft 511 kts 286°
2026-05-07 12:14 42.35488 40.79841 34193 ft 511 kts 286°
2026-05-07 12:14 42.37431 40.70587 34197 ft 511 kts 286°
2026-05-07 12:15 42.39365 40.61330 34196 ft 512 kts 286°
2026-05-07 12:15 42.41294 40.52062 34205 ft 512 kts 286°
2026-05-07 12:16 42.43219 40.42769 34203 ft 512 kts 286°
2026-05-07 12:16 42.45133 40.33484 34200 ft 513 kts 286°
2026-05-07 12:17 42.47043 40.24182 34205 ft 513 kts 287°
2026-05-07 12:17 42.48946 40.14872 34205 ft 513 kts 287°
2026-05-07 12:18 42.50938 40.05599 34195 ft 512 kts 288°
2026-05-07 12:18 42.53009 39.96357 34197 ft 512 kts 288°
2026-05-07 12:19 42.55067 39.87107 34207 ft 512 kts 288°
2026-05-07 12:19 42.57089 39.77901 34191 ft 513 kts 288°
2026-05-07 12:20 42.59110 39.68621 34197 ft 513 kts 288°
2026-05-07 12:20 42.61137 39.59270 34198 ft 513 kts 288°
2026-05-07 12:21 42.63133 39.50027 34200 ft 513 kts 288°
2026-05-07 12:21 42.65137 39.40709 34204 ft 514 kts 288°
2026-05-07 12:22 42.67134 39.31384 34202 ft 514 kts 288°
2026-05-07 12:22 42.69122 39.22055 34195 ft 514 kts 288°
2026-05-07 12:23 42.71106 39.12708 34207 ft 514 kts 288°
2026-05-07 12:23 42.73079 39.03370 34203 ft 514 kts 288°
2026-05-07 12:24 42.75044 38.94027 34188 ft 513 kts 288°
2026-05-07 12:24 42.76908 38.85126 34201 ft 512 kts 288°
2026-05-07 12:25 42.78734 38.75753 34201 ft 513 kts 283°
2026-05-07 12:25 42.79451 38.66058 34206 ft 515 kts 275°
2026-05-07 12:26 42.79835 38.56318 34194 ft 515 kts 275°
2026-05-07 12:26 42.80241 38.46584 34204 ft 515 kts 275°
2026-05-07 12:27 42.80673 38.36861 34203 ft 515 kts 275°
2026-05-07 12:27 42.81109 38.27139 34205 ft 514 kts 275°
2026-05-07 12:28 42.81537 38.17421 34203 ft 514 kts 275°
2026-05-07 12:28 42.81951 38.07767 34196 ft 513 kts 275°
2026-05-07 12:29 42.82358 37.98070 34205 ft 512 kts 275°
2026-05-07 12:29 42.82755 37.88383 34204 ft 512 kts 275°
2026-05-07 12:30 42.83145 37.78695 34206 ft 512 kts 275°
2026-05-07 12:30 42.83527 37.69007 34206 ft 512 kts 275°
2026-05-07 12:31 42.83900 37.59325 34204 ft 511 kts 275°
2026-05-07 12:31 42.84265 37.49650 34203 ft 511 kts 275°
2026-05-07 12:32 42.84621 37.39984 34204 ft 511 kts 275°
2026-05-07 12:32 42.84969 37.30330 34191 ft 510 kts 275°
2026-05-07 12:33 42.85475 37.15851 34204 ft 509 kts 274°
2026-05-07 12:33 42.85803 37.06202 34204 ft 509 kts 274°
2026-05-07 12:34 42.86121 36.96576 34201 ft 508 kts 274°
2026-05-07 12:34 42.86431 36.86957 34183 ft 508 kts 274°
2026-05-07 12:35 42.86732 36.77353 34204 ft 506 kts 274°
2026-05-07 12:35 42.87025 36.67781 34194 ft 505 kts 274°
2026-05-07 12:36 42.87309 36.58220 34194 ft 505 kts 274°
2026-05-07 12:36 42.87585 36.48662 34198 ft 505 kts 274°
2026-05-07 12:37 42.87853 36.39103 34193 ft 504 kts 273°
2026-05-07 12:37 42.88111 36.29618 34191 ft 503 kts 273°
2026-05-07 12:38 42.88365 36.20011 34376 ft 505 kts 273°
2026-05-07 12:38 42.88486 36.15285 34567 ft 504 kts 273°
2026-05-07 12:38 42.88607 36.10517 34763 ft 503 kts 273°
2026-05-07 12:39 42.88726 36.05760 34944 ft 502 kts 273°
2026-05-07 12:39 42.88842 36.01006 35103 ft 501 kts 273°
2026-05-07 12:39 42.88956 35.96254 35287 ft 501 kts 273°
2026-05-07 12:39 42.89069 35.91505 35442 ft 500 kts 273°
2026-05-07 12:40 42.89179 35.86757 35583 ft 501 kts 273°
2026-05-07 12:40 42.89278 35.82440 35694 ft 501 kts 273°
2026-05-07 12:40 42.89385 35.77688 35851 ft 501 kts 273°
2026-05-07 12:40 42.89490 35.72939 35988 ft 500 kts 273°
2026-05-07 12:41 42.89593 35.68202 36094 ft 500 kts 273°
2026-05-07 12:41 42.89693 35.63461 36143 ft 500 kts 273°
2026-05-07 12:41 42.89888 35.53983 36188 ft 500 kts 274°
2026-05-07 12:42 42.90075 35.44521 36184 ft 499 kts 274°
2026-05-07 12:42 42.90255 35.35073 36192 ft 498 kts 274°
2026-05-07 12:43 42.90426 35.25640 36191 ft 497 kts 273°
2026-05-07 12:43 42.90589 35.16214 36174 ft 497 kts 274°
2026-05-07 12:44 42.90744 35.06806 36178 ft 495 kts 274°
2026-05-07 12:44 42.90891 34.97424 36182 ft 494 kts 274°
2026-05-07 12:45 42.91030 34.88055 36182 ft 494 kts 274°
2026-05-07 12:45 42.91162 34.78693 36188 ft 493 kts 274°
2026-05-07 12:46 42.91286 34.69341 36176 ft 493 kts 274°
2026-05-07 12:46 42.91402 34.59996 36183 ft 493 kts 274°
2026-05-07 12:47 42.91506 34.51028 36183 ft 493 kts 274°
2026-05-07 12:47 42.91608 34.41675 36178 ft 493 kts 274°
2026-05-07 12:48 42.91701 34.32329 36167 ft 493 kts 273°
2026-05-07 12:48 42.91787 34.22982 36177 ft 493 kts 273°
2026-05-07 12:49 42.91866 34.13632 36178 ft 493 kts 273°
2026-05-07 12:49 42.91937 34.04278 36174 ft 493 kts 273°
2026-05-07 12:50 42.92000 33.94980 36174 ft 493 kts 273°
2026-05-07 12:50 42.92055 33.85620 36167 ft 493 kts 273°
2026-05-07 12:51 42.92103 33.76262 36165 ft 493 kts 273°
2026-05-07 12:51 42.92143 33.66912 36172 ft 493 kts 273°
2026-05-07 12:52 42.92176 33.57557 36171 ft 493 kts 273°
2026-05-07 12:52 42.92201 33.48211 36171 ft 493 kts 273°
2026-05-07 12:53 42.92219 33.38868 36172 ft 493 kts 272°
2026-05-07 12:53 42.92229 33.29516 36171 ft 492 kts 272°
2026-05-07 12:54 42.92231 33.20175 36169 ft 492 kts 272°
2026-05-07 12:54 42.92226 33.10836 36174 ft 492 kts 272°
2026-05-07 12:55 42.92216 33.03081 36152 ft 491 kts 273°
2026-05-07 12:55 42.92197 32.93757 36164 ft 491 kts 273°
2026-05-07 12:56 42.92164 32.82883 36166 ft 490 kts 272°
2026-05-07 12:56 42.92129 32.73589 36163 ft 490 kts 272°
2026-05-07 12:57 42.92094 32.65872 36162 ft 490 kts 272°
2026-05-07 12:57 42.92045 32.56581 36160 ft 489 kts 273°
2026-05-07 12:58 42.91988 32.47309 36151 ft 488 kts 273°
2026-05-07 12:58 42.91924 32.38066 36154 ft 488 kts 273°
2026-05-07 12:59 42.91853 32.28815 36161 ft 488 kts 273°
2026-05-07 12:59 42.91774 32.19565 36143 ft 487 kts 273°
2026-05-07 13:00 42.91688 32.10320 36157 ft 487 kts 272°
2026-05-07 13:00 42.91595 32.01078 36164 ft 487 kts 272°
2026-05-07 13:01 42.91494 31.91846 36152 ft 487 kts 272°
2026-05-07 13:01 42.91386 31.82606 36149 ft 486 kts 272°
2026-05-07 13:02 42.91270 31.73388 36146 ft 485 kts 273°
2026-05-07 13:02 42.91147 31.64194 36157 ft 485 kts 272°
2026-05-07 13:03 42.91017 31.55013 36155 ft 484 kts 272°
2026-05-07 13:03 42.90880 31.45837 36151 ft 484 kts 272°
2026-05-07 13:04 42.90736 31.36665 36137 ft 483 kts 272°
2026-05-07 13:04 42.90585 31.27510 36150 ft 483 kts 272°
2026-05-07 13:05 42.90426 31.18354 36143 ft 482 kts 272°
2026-05-07 13:05 42.90260 31.09214 36154 ft 482 kts 272°
2026-05-07 13:06 42.90087 31.00066 36152 ft 482 kts 272°
2026-05-07 13:06 42.89907 30.90912 36138 ft 482 kts 271°
2026-05-07 13:07 42.89719 30.81769 36148 ft 482 kts 271°
2026-05-07 13:07 42.89525 30.72630 36158 ft 483 kts 271°
2026-05-07 13:08 42.89324 30.63537 36150 ft 483 kts 271°
2026-05-07 13:08 42.89114 30.54389 36147 ft 483 kts 271°
2026-05-07 13:09 42.88896 30.45187 36142 ft 482 kts 271°
2026-05-07 13:09 42.88672 30.36066 36141 ft 481 kts 271°
2026-05-07 13:10 42.88442 30.26963 36153 ft 480 kts 271°
2026-05-07 13:10 42.88206 30.17923 36155 ft 480 kts 271°
2026-05-07 13:11 42.87962 30.08834 36141 ft 479 kts 271°
2026-05-07 13:11 42.87711 29.99762 36153 ft 479 kts 271°
2026-05-07 13:12 42.87453 29.90700 36133 ft 478 kts 271°
2026-05-07 13:12 42.87188 29.81676 36142 ft 476 kts 271°
2026-05-07 13:13 42.86917 29.72677 36146 ft 474 kts 271°
2026-05-07 13:13 42.86641 29.63702 36139 ft 473 kts 271°
2026-05-07 13:14 42.86358 29.54752 36147 ft 472 kts 271°
2026-05-07 13:14 42.86069 29.45826 36146 ft 471 kts 271°
2026-05-07 13:15 42.85774 29.36904 36147 ft 471 kts 271°
2026-05-07 13:15 42.85472 29.27994 36145 ft 471 kts 271°
2026-05-07 13:16 42.85162 29.19080 36145 ft 471 kts 271°
2026-05-07 13:16 42.84848 29.10222 36142 ft 471 kts 271°
2026-05-07 13:17 42.84524 29.01304 36139 ft 472 kts 271°
2026-05-07 13:17 42.84193 28.92356 36139 ft 472 kts 271°
2026-05-07 13:18 42.83854 28.83408 36142 ft 472 kts 271°
2026-05-07 13:18 42.83525 28.74884 36142 ft 472 kts 271°
2026-05-07 13:19 42.83173 28.65962 36138 ft 472 kts 271°
2026-05-07 13:19 42.82815 28.57037 36132 ft 471 kts 271°
2026-05-07 13:20 42.82452 28.48184 36138 ft 470 kts 271°
2026-05-07 13:20 42.82082 28.39299 36120 ft 469 kts 270°
2026-05-07 13:21 42.81706 28.30440 36129 ft 468 kts 270°
2026-05-07 13:21 42.81325 28.21592 36133 ft 467 kts 270°
2026-05-07 13:22 42.80944 28.12770 36130 ft 466 kts 271°
2026-05-07 13:22 42.80762 28.03957 36131 ft 465 kts 272°
2026-05-07 13:23 42.80669 27.95160 36117 ft 464 kts 271°
2026-05-07 13:23 42.80552 27.86369 36127 ft 464 kts 271°
2026-05-07 13:24 42.80407 27.77566 36122 ft 465 kts 271°
2026-05-07 13:24 42.80247 27.68781 36109 ft 466 kts 271°
2026-05-07 13:25 42.80086 27.60338 36115 ft 467 kts 271°
2026-05-07 13:25 42.79912 27.51493 36096 ft 467 kts 270°
2026-05-07 13:26 42.79730 27.42647 36108 ft 467 kts 270°
2026-05-07 13:26 42.79542 27.33785 36103 ft 468 kts 270°
2026-05-07 13:27 42.79347 27.24922 36087 ft 468 kts 270°
2026-05-07 13:27 42.79145 27.16052 36079 ft 469 kts 270°
2026-05-07 13:28 42.78936 27.07180 36083 ft 469 kts 269°
2026-05-07 13:28 42.78722 26.98358 36072 ft 469 kts 269°
2026-05-07 13:29 42.78499 26.89475 36079 ft 469 kts 269°
2026-05-07 13:29 42.78269 26.80604 36070 ft 469 kts 269°
2026-05-07 13:30 42.78034 26.71733 36076 ft 468 kts 269°
2026-05-07 13:30 42.77791 26.62867 36061 ft 468 kts 269°
2026-05-07 13:31 42.77541 26.54028 36058 ft 467 kts 269°
2026-05-07 13:31 42.77286 26.45198 36061 ft 466 kts 269°
2026-05-07 13:32 42.77025 26.36441 36055 ft 466 kts 268°
2026-05-07 13:32 42.76757 26.27629 36058 ft 465 kts 268°
2026-05-07 13:33 42.76482 26.18818 36053 ft 465 kts 268°
2026-05-07 13:33 42.76200 26.10018 36054 ft 465 kts 268°
2026-05-07 13:34 42.75764 25.96807 36047 ft 465 kts 268°
2026-05-07 13:35 42.75467 25.88037 36047 ft 466 kts 267°
2026-05-07 13:35 42.75161 25.79239 36040 ft 466 kts 267°
2026-05-07 13:36 42.74849 25.70431 36038 ft 467 kts 267°
2026-05-07 13:36 42.74529 25.61609 36036 ft 467 kts 267°
2026-05-07 13:37 42.74203 25.52776 36053 ft 468 kts 267°
2026-05-07 13:37 42.73867 25.43924 36047 ft 469 kts 267°
2026-05-07 13:38 42.73524 25.35037 35684 ft 473 kts 267°
2026-05-07 13:38 42.73352 25.30632 35184 ft 473 kts 267°
2026-05-07 13:38 42.73177 25.26181 34657 ft 469 kts 267°
2026-05-07 13:38 42.73004 25.21770 34175 ft 465 kts 266°
2026-05-07 13:39 42.72826 25.17384 33617 ft 464 kts 266°
2026-05-07 13:39 42.72647 25.13014 33049 ft 464 kts 266°
2026-05-07 13:39 42.72465 25.08628 32502 ft 466 kts 266°
2026-05-07 13:39 42.72281 25.04214 31988 ft 470 kts 266°
2026-05-07 13:40 42.72095 24.99758 31487 ft 473 kts 266°
2026-05-07 13:40 42.71907 24.95301 30946 ft 471 kts 266°
2026-05-07 13:40 42.71718 24.90858 30437 ft 469 kts 266°
2026-05-07 13:40 42.71528 24.86443 29912 ft 468 kts 266°
2026-05-07 13:41 42.71336 24.82027 29333 ft 466 kts 266°
2026-05-07 13:41 42.71145 24.77632 28742 ft 464 kts 266°
2026-05-07 13:41 42.71017 24.74732 28384 ft 462 kts 266°
2026-05-07 13:41 42.70758 24.68910 27674 ft 459 kts 266°
2026-05-07 13:42 42.70630 24.66049 27322 ft 457 kts 266°
2026-05-07 13:42 42.70435 24.61744 26781 ft 455 kts 266°
2026-05-07 13:42 42.70240 24.57468 26260 ft 452 kts 266°
2026-05-07 13:42 42.70045 24.53218 25741 ft 449 kts 265°
2026-05-07 13:43 42.69850 24.48999 25238 ft 446 kts 265°
2026-05-07 13:43 42.69654 24.44793 24745 ft 443 kts 265°
2026-05-07 13:43 42.69458 24.40621 24258 ft 441 kts 265°
2026-05-07 13:43 42.69261 24.36472 23779 ft 438 kts 265°
2026-05-07 13:44 42.69064 24.32349 23245 ft 436 kts 265°
2026-05-07 13:44 42.68867 24.28244 22682 ft 433 kts 265°
2026-05-07 13:44 42.68671 24.24168 22140 ft 431 kts 265°
2026-05-07 13:44 42.68472 24.20108 21610 ft 429 kts 265°
2026-05-07 13:45 42.68376 24.16142 21080 ft 424 kts 273°
2026-05-07 13:45 42.69035 24.12182 20535 ft 427 kts 290°
2026-05-07 13:45 42.70409 24.08625 20040 ft 424 kts 298°
2026-05-07 13:45 42.71846 24.05137 19546 ft 422 kts 296°
2026-05-07 13:46 42.73221 24.01612 19060 ft 421 kts 296°
2026-05-07 13:46 42.74441 23.98035 18558 ft 415 kts 286°
2026-05-07 13:46 42.74893 23.94215 18012 ft 404 kts 271°
2026-05-07 13:46 42.75032 23.90399 17485 ft 404 kts 271°
2026-05-07 13:47 42.75232 23.86569 16953 ft 405 kts 272°
2026-05-07 13:47 42.75459 23.82800 16424 ft 405 kts 273°
2026-05-07 13:47 42.75701 23.78984 15883 ft 404 kts 273°
2026-05-07 13:47 42.75945 23.75192 15351 ft 400 kts 273°
2026-05-07 13:48 42.76186 23.71432 14803 ft 397 kts 273°
2026-05-07 13:48 42.76421 23.67705 14289 ft 393 kts 273°
2026-05-07 13:49 42.77369 23.52322 13094 ft 382 kts 272°
2026-05-07 13:49 42.77590 23.48707 13093 ft 379 kts 272°
2026-05-07 13:49 42.77805 23.45176 13086 ft 368 kts 272°
2026-05-07 13:50 42.78010 23.41775 13076 ft 354 kts 272°
2026-05-07 13:50 42.78206 23.38505 13088 ft 339 kts 272°
2026-05-07 13:50 42.78392 23.35373 13075 ft 324 kts 272°
2026-05-07 13:50 42.78572 23.32320 13109 ft 328 kts 272°
2026-05-07 13:51 42.78754 23.29204 13007 ft 332 kts 272°
2026-05-07 13:51 42.78938 23.26064 12647 ft 333 kts 272°
2026-05-07 13:51 42.79118 23.22991 12514 ft 324 kts 272°
2026-05-07 13:51 42.79293 23.19992 12438 ft 312 kts 272°
2026-05-07 13:52 42.79406 23.18030 12376 ft 305 kts 272°
2026-05-07 13:52 42.79589 23.14839 12182 ft 292 kts 272°
2026-05-07 13:52 42.79744 23.12118 11675 ft 285 kts 272°
2026-05-07 13:52 42.79895 23.09442 11115 ft 282 kts 272°
2026-05-07 13:53 42.80045 23.06800 10564 ft 278 kts 272°
2026-05-07 13:53 42.80194 23.04192 9961 ft 276 kts 273°
2026-05-07 13:53 42.80343 23.01587 9349 ft 274 kts 272°
2026-05-07 13:53 42.80489 22.99030 8762 ft 270 kts 272°
2026-05-07 13:54 42.80635 22.96475 8130 ft 270 kts 272°
2026-05-07 13:54 42.80778 22.93940 7581 ft 266 kts 271°
2026-05-07 13:54 42.80916 22.91443 6963 ft 265 kts 271°
2026-05-07 13:54 42.81008 22.89779 6601 ft 266 kts 271°
2026-05-07 13:55 42.81146 22.87262 5907 ft 267 kts 271°
2026-05-07 13:55 42.80715 22.84065 5229 ft 257 kts 237°
2026-05-07 13:55 42.79485 22.82320 5101 ft 261 kts 212°
2026-05-07 13:55 42.78356 22.81660 4995 ft 261 kts 192°
2026-05-07 13:56 42.76579 22.81739 5009 ft 258 kts 163°
2026-05-07 13:56 42.75029 22.82987 5018 ft 263 kts 140°
2026-05-07 13:56 42.73774 22.84786 5002 ft 266 kts 131°
2026-05-07 13:56 42.72937 22.87043 5006 ft 273 kts 106°
2026-05-07 13:57 42.72677 22.89617 5013 ft 277 kts 98°
2026-05-07 13:57 42.72556 22.92232 5016 ft 278 kts 96°
2026-05-07 13:57 42.72430 22.94860 5021 ft 278 kts 97°
2026-05-07 13:57 42.72282 22.97473 5028 ft 277 kts 97°
2026-05-07 13:58 42.72139 23.00070 4990 ft 272 kts 98°
2026-05-07 13:58 42.71985 23.02616 4999 ft 270 kts 98°
2026-05-07 13:58 42.71831 23.05168 4991 ft 273 kts 98°
2026-05-07 13:58 42.71677 23.07752 5024 ft 276 kts 97°
2026-05-07 13:59 42.71520 23.10361 4987 ft 275 kts 99°
2026-05-07 13:59 42.71366 23.12929 5010 ft 272 kts 98°
2026-05-07 13:59 42.71212 23.15496 5018 ft 272 kts 98°
2026-05-07 13:59 42.71061 23.18048 4926 ft 270 kts 99°
2026-05-07 14:00 42.70910 23.20581 4514 ft 260 kts 99°
2026-05-07 14:00 42.70774 23.22912 4252 ft 238 kts 97°
2026-05-07 14:00 42.70641 23.25084 3884 ft 220 kts 96°
2026-05-07 14:00 42.70523 23.27046 3626 ft 202 kts 97°
2026-05-07 14:01 42.70415 23.28878 3367 ft 188 kts 96°
2026-05-07 14:01 42.70313 23.30578 3107 ft 173 kts 95°
2026-05-07 14:01 42.70216 23.32193 2902 ft 172 kts 95°
2026-05-07 14:01 42.70118 23.33829 2683 ft 175 kts 96°
2026-05-07 14:02 42.70018 23.35488 2473 ft 176 kts 96°
2026-05-07 14:02 42.69917 23.37153 2219 ft 175 kts 95°
2026-05-07 14:02 42.69822 23.38825 1958 ft 178 kts 94°
2026-05-07 14:02 42.69722 23.40481 1764 ft 170 kts 95°
2026-05-07 14:03 42.69639 23.41933 1758 ft 133 kts 94°
2026-05-07 14:03 42.69582 23.42921 1750 ft 80 kts 95°
2026-05-07 14:03 42.69546 23.43490 1752 ft 54 kts 94°
2026-05-07 14:03 42.69520 23.43882 1790 ft 25 kts 104°
2026-05-07 14:04 42.69390 23.43949 1795 ft 22 kts 191°
2026-05-07 14:04 42.69334 23.43786 1791 ft 22 kts 278°
2026-05-07 14:04 42.69349 23.43582 1749 ft 22 kts 275°
2026-05-07 14:04 42.69364 23.43377 1757 ft 22 kts 275°
2026-05-07 14:05 42.69372 23.43172 1757 ft 22 kts 272°
2026-05-07 14:05 42.69378 23.42967 1749 ft 22 kts 272°
2026-05-07 14:05 42.69394 23.42763 1749 ft 22 kts 280°
2026-05-07 14:05 42.69412 23.42561 1751 ft 19 kts 275°
2026-05-07 14:06 42.69364 23.42431 1751 ft 17 kts 193°
2026-05-07 14:06 42.69254 23.42375 1747 ft 17 kts 225°
2026-05-07 14:06 42.69207 23.42227 1751 ft 17 kts 252°
2026-05-07 14:06 42.69171 23.42071 1752 ft 17 kts 253°
2026-05-07 14:07 42.69137 23.41914 1752 ft 17 kts 253°
2026-05-07 14:07 42.69103 23.41758 1751 ft 17 kts 253°
2026-05-07 14:07 42.69093 23.41604 1748 ft 16 kts 306°
2026-05-07 14:07 42.69161 23.41528 1748 ft 10 kts 261°
2026-05-07 14:08 42.69136 23.41459 1752 ft 3 kts 253°
2026-05-07 14:08 42.69135 23.41454 1751 ft 0 kts 253°